IQ5QD-13 Weather Reports


time (UTC)temp
C
wind
direction
speed
KPH
gust
KPH
rain 1hr
cm
rain 24hr
cm
rain mn
cm
humidity
%
barometer
mb
20260507202617 11 107 0.0 1.6 0.00 0.25 0.20 88 1008.9
20260507201542 12 0.0 0.0 0.00 0.25 0.20 87 1008.9
20260507200528 12 0.0 0.0 0.00 0.25 0.20 86 1009.0
20260507195613 12 0.0 0.0 0.00 0.25 0.20 86 1009.0
20260507194637 12 94 1.6 3.2 0.00 0.25 0.20 86 1009.0
20260507193537 13 111 1.6 3.2 0.00 0.28 0.20 85 1009.1
20260507192617 13 106 1.6 3.2 0.00 0.28 0.20 84 1008.9
20260507191536 14 134 1.6 3.2 0.00 0.28 0.20 82 1008.9
20260507190601 15 236 0.0 1.6 0.00 0.28 0.20 76 1008.8
20260507185520 16 317 0.0 1.6 0.00 0.30 0.20 72 1008.8
20260507184544 16 308 0.0 1.6 0.00 0.30 0.20 70 1008.8
20260507183521 16 302 0.0 1.6 0.00 0.30 0.20 69 1008.6
20260507182544 17 320 3.2 4.8 0.00 0.30 0.20 66 1008.5
20260507181521 17 337 1.6 3.2 0.00 0.33 0.20 66 1008.6
20260507180536 18 299 1.6 3.2 0.00 0.33 0.20 63 1008.5
20260507175612 18 299 3.2 6.4 0.00 0.33 0.20 62 1008.5
20260507174548 19 286 3.2 6.4 0.00 0.33 0.20 62 1008.4
20260507173552 19 270 1.6 4.8 0.00 0.36 0.20 60 1008.4
20260507172640 19 256 3.2 4.8 0.00 0.36 0.20 60 1008.2
20260507171617 20 278 3.2 9.7 0.00 0.36 0.20 58 1008.1
20260507170636 21 214 0.0 1.6 0.00 0.36 0.20 53 1008.2
20260507165533 22 0.0 0.0 0.00 0.38 0.20 45 1008.3
20260507164620 22 230 3.2 4.8 0.00 0.38 0.20 45 1008.3
20260507163537 21 171 3.2 9.7 0.00 0.38 0.20 46 1008.4
20260507162618 22 192 3.2 9.7 0.00 0.41 0.20 45 1008.2
20260507161544 22 245 3.2 6.4 0.00 0.41 0.20 45 1008.4
20260507160621 22 245 3.2 4.8 0.00 0.41 0.20 45 1008.4
20260507155537 22 247 3.2 9.7 0.00 0.43 0.20 45 1008.3
20260507154617 22 244 3.2 6.4 0.00 0.43 0.20 46 1008.2
20260507153537 22 175 4.8 9.7 0.00 0.43 0.20 44 1008.3
20260507152601 22 170 3.2 6.4 0.00 0.46 0.20 45 1008.2
20260507151534 22 194 4.8 9.7 0.00 0.46 0.20 46 1008.3
20260507150601 22 229 4.8 11.3 0.00 0.48 0.20 46 1008.4
20260507145533 22 239 3.2 9.7 0.00 0.48 0.20 48 1008.5
20260507144601 22 234 3.2 9.7 0.00 0.51 0.20 47 1008.5
20260507143521 22 246 4.8 14.5 0.00 0.51 0.20 47 1008.5
20260507142604 22 225 6.4 12.9 0.00 0.53 0.20 48 1008.6
20260507141608 22 218 6.4 16.1 0.00 0.53 0.20 49 1008.8
20260507140539 22 181 8.0 14.5 0.00 0.56 0.20 48 1008.8
20260507135609 22 159 12.9 24.1 0.00 0.56 0.20 47 1008.9
20260507134529 22 166 8.0 17.7 0.00 0.58 0.20 47 1008.9
20260507133553 22 175 4.8 14.5 0.00 0.58 0.20 47 1009.0
20260507132530 22 167 11.3 17.7 0.00 0.61 0.20 45 1009.0
20260507131553 22 156 8.0 16.1 0.00 0.61 0.20 48 1009.0
20260507130637 22 152 8.0 22.5 0.00 0.61 0.20 48 1009.1
20260507125537 22 171 6.4 14.5 0.00 0.64 0.20 47 1009.0
20260507124600 22 160 9.7 16.1 0.00 0.64 0.20 47 1009.0
20260507123539 22 225 4.8 9.7 0.00 0.66 0.20 51 1009.1
20260507122616 22 174 6.4 14.5 0.00 0.66 0.20 52 1009.0
20260507121534 22 186 4.8 9.7 0.00 0.66 0.20 52 1009.0
20260507120601 22 250 4.8 4.8 0.00 0.69 0.20 52 1009.2
20260507115613 22 183 6.4 12.9 0.00 0.69 0.20 52 1009.2
20260507114601 23 167 3.2 4.8 0.00 0.71 0.20 53 1009.3
20260507113521 22 132 4.8 11.3 0.00 0.71 0.20 55 1009.4
20260507112545 21 244 1.6 3.2 0.00 0.74 0.20 60 1009.5
20260507111629 22 244 3.2 9.7 0.00 0.76 0.20 58 1009.6
20260507110529 21 121 1.6 3.2 0.03 0.76 0.20 60 1009.7
20260507105553 20 177 1.6 3.2 0.03 0.79 0.20 61 1009.7
20260507104540 21 238 3.2 4.8 0.03 0.79 0.20 60 1009.7
20260507103537 21 184 4.8 9.7 0.03 0.81 0.20 60 1009.8
20260507102617 22 303 1.6 3.2 0.03 0.81 0.20 57 1010.1
20260507101537 19 58 3.2 6.4 0.03 0.84 0.20 62 1010.1
20260507100601 21 142 3.2 6.4 0.00 0.81 0.18 58 1010.2
20260507095533 21 152 3.2 6.4 0.00 0.84 0.18 60 1010.1
20260507094600 21 240 3.2 4.8 0.00 0.84 0.18 60 1010.2
20260507093534 21 212 1.6 9.7 0.00 0.86 0.18 60 1010.0
20260507092600 20 144 1.6 4.8 0.00 0.89 0.18 64 1010.0
20260507091533 20 273 1.6 6.4 0.03 0.89 0.18 65 1010.1
20260507090601 20 144 1.6 6.4 0.03 0.89 0.18 64 1010.1
20260507085521 18 331 3.2 4.8 0.03 0.91 0.18 73 1010.1
20260507084542 18 248 3.2 6.4 0.03 0.91 0.18 73 1010.3
20260507083631 18 301 3.2 6.4 0.03 0.94 0.18 75 1010.2
20260507082602 18 52 1.6 1.6 0.03 0.94 0.18 74 1010.3
20260507081609 18 292 3.2 4.8 0.00 0.94 0.15 74 1010.2
20260507080549 18 90 0.0 1.6 0.00 0.94 0.15 74 1010.3
20260507075613 17 113 0.0 3.2 0.00 0.97 0.15 75 1010.2
20260507074629 16 263 3.2 4.8 0.03 0.97 0.15 78 1010.2
20260507073552 16 128 0.0 3.2 0.03 0.99 0.15 81 1010.2
20260507072617 16 49 1.6 3.2 0.03 0.99 0.15 79 1010.2
20260507071557 15 331 1.6 3.2 0.03 0.99 0.15 83 1010.1
20260507070601 15 132 1.6 3.2 0.03 1.02 0.15 83 1010.1
20260507065521 14 138 1.6 4.8 0.03 1.02 0.15 84 1009.9
20260507064546 13 68 1.6 3.2 0.00 1.02 0.13 85 1009.9
20260507063521 13 72 1.6 4.8 0.00 1.02 0.13 85 1009.9
20260507062545 13 59 0.0 1.6 0.00 1.04 0.13 89 1009.7
20260507061520 12 57 0.0 1.6 0.00 1.04 0.13 91 1009.7
20260507060546 12 255 1.6 3.2 0.03 1.04 0.13 92 1009.7
20260507055609 12 158 0.0 1.6 0.03 1.07 0.13 92 1009.5
20260507054529 12 0.0 0.0 0.03 1.07 0.13 92 1009.5
20260507053553 11 275 0.0 1.6 0.03 1.09 0.13 93 1009.5
20260507052529 11 0.0 0.0 0.03 1.09 0.13 93 1009.3
20260507051544 11 0.0 0.0 0.03 1.12 0.13 93 1009.3
20260507050617 11 0.0 0.0 0.00 1.09 0.10 93 1009.3
20260507045538 10 0.0 0.0 0.00 1.12 0.10 93 1009.2
20260507044617 10 0.0 0.0 0.00 1.12 0.10 93 1009.1
20260507043538 10 0.0 0.0 0.00 1.14 0.10 93 1008.9
20260507042618 10 0.0 0.0 0.00 1.14 0.10 93 1008.9
20260507041558 10 55 0.0 1.6 0.03 1.17 0.10 93 1008.8
20260507040601 10 77 0.0 1.6 0.03 1.17 0.10 93 1008.8
20260507035537 9 81 0.0 1.6 0.03 1.19 0.10 93 1009.0
20260507034622 8 0.0 0.0 0.03 1.19 0.10 93 1008.9
20260507033534 8 109 0.0 3.2 0.03 1.22 0.10 93 1008.8
20260507032604 9 112 1.6 3.2 0.03 1.22 0.10 93 1008.8
20260507031534 8 0.0 0.0 0.00 1.22 0.08 92 1008.7
20260507030601 8 0.0 0.0 0.00 1.22 0.08 92 1008.7
20260507025542 9 0.0 0.0 0.00 1.24 0.08 92 1008.9
20260507024540 9 0.0 0.0 0.00 1.24 0.08 92 1008.9
20260507023521 9 54 0.0 1.6 0.00 1.27 0.08 92 1008.9
20260507022541 9 0.0 0.0 0.03 1.27 0.08 92 1008.8
20260507021541 9 0.0 0.0 0.03 1.30 0.08 92 1008.8
20260507020546 10 0.0 0.0 0.03 1.32 0.08 92 1008.8
20260507015610 10 0.0 0.0 0.03 1.32 0.08 92 1008.8
20260507014530 10 0.0 0.0 0.03 1.32 0.08 92 1008.7
20260507013554 10 0.0 0.0 0.03 1.35 0.08 92 1008.8
20260507012530 10 0.0 0.0 0.00 1.32 0.05 92 1008.7
20260507011553 10 0.0 0.0 0.00 1.35 0.05 92 1008.7
20260507010617 10 0.0 0.0 0.00 1.35 0.05 92 1008.8
20260507005537 10 0.0 0.0 0.00 1.37 0.05 91 1008.7
20260507004601 11 0.0 0.0 0.03 1.40 0.05 91 1008.8
20260507003534 11 0.0 0.0 0.03 1.40 0.05 91 1008.8
20260507002601 11 15 0.0 1.6 0.03 1.42 0.05 91 1008.8
20260507001534 11 0.0 0.0 0.03 1.45 0.05 91 1008.8
20260507000601 11 0.0 0.0 0.03 1.45 0.05 91 1008.6
20260506235534 11 114 1.6 3.2 0.03 1.47 0.05 91 1008.7
20260506234642 11 0.0 0.0 0.00 1.45 0.03 90 1008.6
20260506233522 11 0.0 0.0 0.00 1.47 0.03 90 1008.8
20260506232542 12 249 1.6 3.2 0.03 1.47 0.03 90 1008.8
20260506231609 12 129 3.2 3.2 0.03 1.50 0.03 89 1008.9
20260506230529 12 160 1.6 1.6 0.03 1.50 0.03 89 1008.8
20260506225033 12 0.0 0.0 0.03 1.52 0.03 88 1008.6
20260506224058 13 143 0.0 1.6 0.03 1.52 0.03 88 1008.8
20260506223018 13 105 3.2 4.8 0.00 1.50 0.00 88 1008.8
20260506222040 13 148 0.0 1.6 0.03 1.52 0.00 87 1008.7
20260506221017 13 0.0 0.0 0.03 1.52 0.00 86 1008.6
20260506220038 13 151 0.0 1.6 0.03 1.52 0.00 85 1008.6
20260506215105 13 130 3.2 4.8 0.03 1.52 1.52 85 1008.5
20260506214024 14 146 1.6 3.2 0.03 1.52 1.52 85 1008.5
20260506213046 14 159 3.2 3.2 0.03 1.52 1.52 86 1008.6
20260506212023 14 168 1.6 4.8 0.03 1.52 1.50 85 1008.4
20260506211050 14 149 1.6 3.2 0.03 1.52 1.50 86 1008.3
20260506210022 15 125 3.2 4.8 0.03 1.52 1.50 86 1008.3
20260506205040 15 131 3.2 4.8 0.03 1.52 1.50 85 1008.3
20260506204113 15 127 4.8 6.4 0.03 1.55 1.50 88 1008.1